Wetbulb
53.26 53.47 53.87 53.88 53.59 53.52 53.88 54.31 54.64 54.59 54.75 55.02 55.43 55.87 56.86 57.63 57.83 55.01 48.78 53.41 55.41 58.35 57.77 54.39 54.18 53.07 52.66 50.40 51.55 51.71 40.50 37.94 40.29 41.19 42.65 47.44 46.21 50.15 52.30 50.12 50.36 53.74 53.20 59.86 64.01
53.18 53.33 53.55 53.63 53.38 53.33 53.76 54.19 54.37 54.38 54.51 54.85 55.24 55.72 56.66 57.31 54.41 50.33 54.23 57.35 57.72 57.85 53.03 50.69 48.85 51.08 48.34 48.54 47.75 44.27 39.84 41.57 43.56 43.66 42.23 44.72 44.57 45.52 46.23 48.12 48.79 50.78 54.25 60.93 62.39
52.82 53.03 53.01 53.01 53.02 53.44 53.80 54.01 54.06 54.19 54.44 54.78 55.11 55.63 56.60 56.06 50.75 48.86 55.89 56.99 57.11 56.69 53.81 53.28 52.44 50.75 47.67 48.32 46.51 45.01 39.27 43.77 44.14 45.79 45.82 44.17 44.01 46.41 43.61 41.80 46.45 47.61 51.79 55.57 60.21
52.60 52.94 52.53 52.50 52.70 53.35 53.70 53.83 53.95 54.14 54.45 54.73 55.04 55.66 57.04 53.43 41.55 51.41 55.86 56.16 56.71 55.31 53.31 51.32 50.19 46.98 45.27 43.49 46.81 40.85 45.13 45.54 45.91 46.35 45.31 43.47 45.77 43.72 44.27 44.31 48.13 47.85 49.13 54.15 54.07
52.61 52.63 52.43 52.77 52.80 52.88 53.25 53.50 53.77 54.10 54.41 54.71 55.07 55.83 54.40 48.43 47.05 54.72 56.60 56.51 54.38 53.31 50.59 48.97 46.69 45.62 42.87 43.78 44.43 42.16 43.86 45.40 46.35 46.02 45.53 46.33 43.77 43.48 43.95 47.14 48.72 49.14 48.69 49.19 53.09
52.52 52.67 52.65 52.84 52.93 52.91 53.01 53.29 53.77 54.10 54.25 54.57 55.34 55.78 51.65 44.10 53.75 55.12 54.05 53.69 52.51 51.68 50.39 49.90 47.47 48.14 45.48 44.18 42.91 44.50 43.99 43.86 45.46 45.61 45.95 43.94 43.48 44.48 44.92 47.90 47.48 48.14 47.20 47.38 49.30
52.69 52.79 52.88 53.04 52.74 52.71 52.69 53.22 53.82 53.84 53.96 55.14 55.19 54.50 49.64 46.33 54.34 54.54 53.88 52.89 53.13 51.64 48.96 51.06 50.85 47.46 46.30 43.26 46.10 44.41 39.64 42.77 44.70 45.26 43.86 44.79 40.15 40.73 46.35 47.64 46.17 46.13 47.01 47.93 47.55
52.87 52.77 52.78 52.74 52.52 52.37 52.63 53.38 53.22 53.07 53.86 54.60 55.15 53.55 46.50 53.76 53.88 53.26 53.84 52.46 53.73 53.68 51.88 52.42 52.33 48.11 46.07 46.75 44.90 40.66 41.52 35.27 42.60 44.23 44.75 43.06 34.54 43.30 46.57 45.14 44.47 46.15 48.11 50.23 52.49
53.55 52.90 52.52 52.34 52.20 52.05 52.70 52.53 52.49 53.15 54.08 55.02 52.93 50.39 44.25 52.46 49.75 52.28 53.08 49.92 51.55 52.53 53.12 52.36 50.85 46.39 45.96 40.73 37.73 39.13 31.87 34.26 37.62 44.01 42.24 40.41 36.42 42.40 45.16 44.55 43.57 44.72 46.50 47.42 50.67
53.85 52.72 52.46 51.95 51.74 52.04 52.19 52.01 51.77 52.36 54.04 53.61 51.40 45.71 47.24 45.14 49.75 50.92 53.17 51.59 49.22 49.93 48.79 47.45 45.67 41.67 40.99 37.52 29.29 31.67 33.11 35.09 35.40 40.54 39.84 38.27 37.19 41.87 44.48 43.05 41.27 42.52 44.84 46.19 48.75
53.79 52.48 52.12 51.59 51.37 52.03 49.87 49.29 45.17 44.51 47.58 43.22 43.77 43.83 45.39 49.30 51.79 49.78 51.88 49.62 49.04 46.63 40.06 44.39 37.89 34.50 36.75 39.07 39.12 37.14 35.73 34.18 37.98 41.40 37.69 38.20 38.98 40.12 41.83 41.45 40.44 40.53 42.66 44.40 47.30
53.25 52.30 51.55 51.03 51.25 51.32 49.42 45.68 43.91 45.30 40.07 45.14 45.39 45.63 47.72 48.65 44.51 47.81 51.51 45.13 43.89 39.25 41.74 38.95 35.88 39.37 41.21 40.67 40.02 37.15 35.06 33.96 37.53 40.59 38.84 38.15 35.22 38.73 39.29 39.56 40.83 40.21 40.40 43.58 45.38
53.36 52.13 50.93 50.53 50.89 49.73 46.91 45.40 49.70 48.90 40.77 41.63 45.06 44.41 45.55 47.13 43.78 44.72 47.68 45.74 41.79 39.03 38.60 34.92 38.66 41.10 39.38 38.63 37.85 35.52 32.96 33.03 33.81 38.51 39.00 36.89 33.97 35.70 37.38 39.72 39.51 40.18 40.83 43.51 43.78
53.22 51.72 49.96 49.98 46.33 47.27 43.31 47.22 49.67 49.35 37.37 36.66 40.32 43.23 45.27 46.29 42.05 48.07 48.61 45.26 42.20 37.58 38.37 37.16 40.57 38.34 37.00 37.23 37.58 32.33 39.75 36.91 35.50 35.21 31.44 36.67 27.54 32.38 36.36 36.08 37.88 37.41 38.95 41.62 42.31
53.14 51.26 49.49 47.76 46.32 43.92 45.15 47.49 48.90 46.01 26.25 37.67 39.28 47.40 45.70 42.02 42.85 43.59 48.14 45.21 39.33 39.41 37.74 35.30 35.77 35.16 35.16 36.95 38.12 35.20 39.46 37.36 37.78 36.25 34.83 31.58 29.61 31.48 34.93 33.13 34.60 37.79 37.97 41.88 42.58
52.65 50.77 49.11 47.00 47.72 46.98 48.27 48.75 46.17 33.04 23.30 33.70 39.91 39.01 39.11 41.35 41.71 43.68 43.53 45.25 44.34 38.96 39.02 37.35 40.43 37.71 37.24 38.70 38.73 40.53 37.63 38.13 36.62 35.66 29.32 27.59 27.42 28.51 30.78 32.76 34.20 38.20 39.78 42.67 43.87
52.21 50.73 48.20 47.43 44.26 48.37 48.60 44.60 31.93 25.53 33.48 31.72 33.76 37.85 37.75 36.88 38.51 39.47 38.97 37.60 35.34 29.98 31.49 36.15 36.56 38.61 39.21 35.64 39.69 37.59 33.56 25.01 26.65 24.13 21.77 30.90 27.62 29.78 34.76 36.41 37.57 38.24 39.16 41.91 44.77
51.57 49.68 47.01 47.73 48.44 47.60 44.45 34.65 22.13 31.50 29.75 36.88 36.48 36.57 33.91 36.44 36.29 37.32 35.96 33.39 37.41 35.93 31.70 28.91 25.84 35.12 38.53 35.25 32.39 33.29 32.94 23.65 17.85 20.92 23.17 30.46 22.46 28.63 35.83 39.03 39.33 39.06 40.20 40.77 41.22
50.37 47.89 46.47 47.52 47.84 46.31 39.32 28.39 29.97 32.24 34.74 33.96 34.73 30.50 31.62 35.44 34.72 34.41 33.52 33.66 35.94 37.00 30.63 29.52 29.70 37.31 37.72 37.75 36.30 33.18 28.81 34.34 28.48 24.12 23.23 26.60 30.65 34.17 37.49 37.15 37.34 37.55 37.77 37.50 38.44
45.53 44.12 43.97 48.07 47.43 43.44 34.20 29.61 29.50 34.61 36.79 36.18 29.10 33.56 28.87 30.51 31.29 31.75 31.44 34.77 35.19 37.78 38.15 34.53 26.32 34.49 36.41 37.83 37.12 34.19 36.32 26.82 26.64 16.91 19.78 23.07 24.19 25.21 32.04 34.02 35.87 34.82 34.59 35.84 37.15
43.71 38.69 43.68 47.83 45.23 37.66 28.35 29.23 30.69 34.76 37.78 33.67 31.27 29.78 31.95 31.51 31.24 30.96 31.37 34.26 36.42 36.67 37.40 36.02 31.60 30.28 34.69 31.87 30.22 32.39 31.29 32.53 30.94 27.41 23.35 22.06 21.77 32.04 32.91 33.18 32.54 34.16 35.60 35.58 35.76
42.07 32.17 43.27 45.55 33.72 31.98 29.45 28.15 32.24 33.03 37.03 36.20 35.67 33.47 31.17 32.62 30.95 30.45 30.99 34.22 38.58 38.05 33.04 36.51 31.93 23.79 28.54 33.72 34.98 34.23 32.07 32.70 24.54 24.38 25.85 25.94 23.41 36.50 34.06 33.69 33.60 33.25 35.43 36.22 36.24
36.18 35.75 43.87 42.12 28.02 27.81 29.16 27.27 30.25 31.82 33.54 33.77 32.78 35.95 35.90 32.46 27.02 32.65 34.03 37.30 38.33 37.37 34.78 36.11 25.53 17.20 23.06 29.76 33.54 31.52 33.49 33.98 33.00 29.58 26.13 23.10 24.08 35.97 34.15 32.87 33.79 32.51 33.57 34.90 34.84
35.92 30.16 34.89 37.17 36.10 32.40 27.51 27.14 25.18 33.92 33.47 35.67 34.41 35.74 33.45 30.35 33.42 30.07 31.81 35.72 36.53 37.26 38.81 38.23 31.47 26.05 21.03 24.52 28.73 26.41 29.51 31.91 31.19 23.77 26.01 25.49 26.94 30.97 31.59 31.38 32.16 32.83 33.47 33.39 34.36
35.54 32.45 34.07 26.53 29.07 30.42 31.09 30.11 27.29 25.05 30.96 34.29 31.65 33.00 31.99 27.66 29.99 29.03 32.86 33.50 35.09 38.18 36.16 35.34 27.35 27.30 28.46 30.11 28.68 27.36 27.31 28.44 27.80 29.87 23.91 27.73 28.48 32.20 32.28 31.43 31.94 33.16 34.34 34.15 34.15
32.60 31.99 35.31 32.26 33.05 30.00 31.31 28.71 28.11 29.45 28.65 27.88 28.32 32.53 33.34 29.86 31.18 28.56 31.93 31.64 30.75 34.88 33.53 34.13 26.57 25.01 18.98 27.93 27.81 24.68 26.20 27.41 27.86 29.29 30.29 30.79 29.14 36.31 35.14 33.59 31.72 33.72 33.95 33.23 33.76
39.65 39.70 37.03 34.04 31.95 28.92 28.87 30.14 29.52 32.15 32.45 34.19 32.29 31.15 30.45 33.40 35.30 34.98 35.37 35.17 33.78 32.42 31.38 28.62 22.91 17.17 13.98 21.82 18.20 13.48 20.16 25.09 27.87 30.44 31.60 27.32 32.12 35.60 33.26 33.77 32.77 32.95 33.94 33.59 33.97
MSLP
1021.58 1021.43 1021.22 1020.98 1020.76 1020.56 1020.32 1020.02 1019.72 1019.44 1019.12 1018.82 1018.46 1018.07 1017.72 1017.34 1016.42 1015.81 1016.46 1017.33 1016.95 1016.43 1015.63 1014.60 1013.73 1013.50 1012.96 1012.89 1012.88 1012.49 1012.25 1011.40 1010.87 1010.29 1009.86 1009.33 1009.10 1008.24 1007.55 1007.48 1007.66 1007.88 1007.70 1007.60 1008.16
1021.56 1021.41 1021.26 1021.10 1020.90 1020.64 1020.38 1020.12 1019.83 1019.47 1019.10 1018.77 1018.46 1018.14 1017.81 1017.44 1016.52 1016.50 1017.46 1017.17 1016.83 1016.35 1015.53 1014.89 1014.23 1013.62 1012.99 1012.90 1012.90 1012.82 1012.35 1011.54 1011.71 1011.63 1011.60 1011.32 1011.11 1010.78 1009.92 1008.97 1008.73 1008.53 1007.72 1008.03 1008.68
1021.58 1021.46 1021.29 1021.14 1020.96 1020.73 1020.46 1020.16 1019.83 1019.48 1019.09 1018.76 1018.43 1018.14 1017.82 1017.54 1016.68 1016.99 1017.31 1017.02 1016.72 1016.26 1015.59 1014.83 1014.35 1013.96 1013.46 1013.52 1013.37 1013.20 1012.83 1012.27 1012.16 1012.33 1012.59 1012.53 1012.45 1011.99 1011.39 1010.59 1010.00 1009.46 1008.56 1008.62 1009.05
1021.59 1021.45 1021.30 1021.13 1020.94 1020.70 1020.44 1020.17 1019.84 1019.50 1019.20 1018.85 1018.49 1018.13 1017.73 1017.32 1017.48 1017.45 1017.41 1017.09 1016.80 1016.30 1015.49 1014.99 1014.64 1014.40 1014.11 1014.04 1014.08 1014.28 1013.39 1013.38 1013.04 1012.91 1013.13 1013.21 1013.04 1012.45 1012.12 1011.36 1010.82 1009.96 1009.13 1009.05 1009.13
1021.54 1021.44 1021.33 1021.13 1020.96 1020.68 1020.35 1020.07 1019.82 1019.52 1019.19 1018.83 1018.49 1018.19 1017.73 1017.11 1017.27 1017.20 1017.30 1017.06 1016.57 1016.28 1016.07 1015.88 1015.54 1015.53 1015.22 1015.13 1014.93 1014.59 1014.28 1014.08 1013.90 1013.45 1013.27 1013.09 1013.00 1012.78 1011.95 1011.49 1010.87 1010.23 1009.26 1009.16 1008.94
1021.43 1021.37 1021.30 1021.14 1020.88 1020.63 1020.37 1020.04 1019.69 1019.39 1019.10 1018.75 1018.51 1018.27 1017.74 1017.10 1017.14 1017.09 1017.25 1017.07 1016.79 1016.56 1016.35 1016.53 1016.74 1016.74 1016.28 1015.91 1015.85 1015.53 1015.24 1014.64 1014.04 1013.63 1013.09 1012.86 1012.79 1012.56 1011.73 1011.19 1010.73 1010.33 1009.78 1009.25 1009.09
1021.34 1021.24 1021.15 1021.06 1020.82 1020.52 1020.25 1019.95 1019.57 1019.23 1018.97 1018.71 1018.50 1018.12 1017.47 1017.45 1017.01 1017.15 1017.22 1017.19 1017.16 1017.08 1017.05 1017.10 1017.23 1017.04 1017.03 1016.39 1016.36 1016.19 1015.63 1014.35 1013.50 1013.62 1012.99 1012.85 1013.06 1012.60 1012.21 1011.31 1010.63 1010.09 1010.02 1009.63 1009.07
1021.14 1021.11 1021.07 1020.95 1020.74 1020.44 1020.11 1019.74 1019.35 1019.07 1018.85 1018.64 1018.40 1018.03 1017.39 1017.23 1017.17 1017.05 1016.91 1016.95 1017.19 1017.22 1017.38 1017.45 1017.43 1017.27 1017.11 1016.74 1016.13 1016.03 1015.76 1015.24 1014.34 1014.07 1013.88 1013.95 1013.28 1013.44 1013.13 1012.48 1011.77 1011.18 1010.74 1010.63 1010.14
1020.95 1020.96 1020.90 1020.84 1020.65 1020.33 1019.93 1019.52 1019.13 1018.88 1018.72 1018.64 1018.36 1017.69 1017.39 1017.50 1017.16 1017.16 1017.18 1017.12 1017.22 1017.32 1017.38 1017.50 1017.56 1017.08 1016.79 1016.43 1015.99 1016.25 1016.61 1016.00 1015.31 1014.83 1014.85 1015.01 1014.40 1014.33 1014.21 1013.70 1013.17 1012.60 1012.47 1012.01 1011.31
1020.68 1020.78 1020.78 1020.71 1020.54 1020.23 1019.65 1019.28 1018.98 1018.88 1018.56 1018.21 1017.97 1017.90 1017.31 1017.27 1017.24 1017.29 1017.23 1017.34 1017.19 1017.17 1017.16 1017.32 1017.25 1016.90 1016.64 1016.66 1017.16 1017.21 1017.14 1016.65 1016.11 1015.58 1015.32 1015.48 1015.32 1015.02 1015.46 1014.96 1015.05 1014.58 1014.20 1013.66 1012.85
1020.47 1020.62 1020.67 1020.66 1020.46 1020.10 1019.64 1019.20 1019.41 1019.05 1018.17 1018.11 1017.86 1017.58 1017.37 1017.51 1017.38 1017.22 1017.34 1017.32 1017.16 1017.07 1016.54 1016.50 1016.64 1016.35 1016.51 1016.89 1017.24 1017.38 1017.39 1017.24 1016.63 1016.06 1016.24 1016.11 1015.75 1016.35 1016.58 1016.30 1016.17 1016.02 1015.41 1014.74 1013.75
1020.32 1020.48 1020.60 1020.59 1020.37 1019.90 1019.78 1019.24 1019.83 1020.10 1018.97 1018.31 1018.09 1017.72 1017.74 1017.81 1017.42 1016.91 1016.82 1017.77 1017.19 1016.58 1016.13 1016.40 1016.00 1015.99 1016.30 1016.38 1016.50 1016.87 1017.29 1017.35 1016.94 1016.51 1016.51 1016.75 1017.15 1017.43 1017.76 1017.69 1017.37 1017.07 1016.59 1015.37 1014.46
1020.17 1020.40 1020.55 1020.54 1020.30 1020.04 1019.79 1020.13 1020.12 1019.89 1019.22 1018.41 1017.99 1017.64 1017.67 1017.90 1017.48 1017.01 1016.91 1016.80 1017.27 1016.97 1016.26 1015.98 1015.71 1015.81 1015.85 1015.78 1015.97 1016.32 1016.94 1017.22 1017.24 1016.98 1017.14 1017.49 1017.82 1018.18 1018.63 1018.52 1018.25 1017.87 1017.42 1016.16 1015.29
1019.98 1020.28 1020.51 1020.43 1020.66 1019.98 1020.05 1020.33 1020.24 1020.01 1019.30 1018.65 1018.02 1017.87 1017.82 1017.63 1017.65 1017.58 1017.18 1017.30 1017.00 1017.13 1016.64 1016.15 1015.64 1015.73 1015.67 1015.80 1016.08 1016.01 1016.13 1016.47 1016.59 1017.12 1017.33 1017.84 1018.32 1018.61 1018.94 1019.09 1018.84 1018.59 1017.95 1016.84 1016.08
1019.79 1020.17 1020.43 1020.44 1020.26 1020.04 1020.39 1020.30 1020.30 1020.13 1019.57 1018.74 1018.14 1017.88 1017.61 1017.62 1017.68 1017.83 1017.77 1017.31 1017.26 1016.94 1017.49 1016.10 1016.05 1016.17 1015.78 1015.49 1016.11 1015.80 1015.75 1016.21 1016.45 1016.84 1017.19 1017.66 1018.34 1018.96 1019.19 1019.16 1018.87 1018.73 1018.46 1017.40 1016.90
1019.68 1020.05 1020.38 1020.36 1020.19 1020.35 1020.30 1020.34 1020.44 1020.32 1019.21 1018.66 1018.10 1017.83 1017.72 1017.48 1017.25 1017.55 1017.80 1017.63 1017.47 1017.30 1016.96 1016.61 1016.34 1016.59 1016.24 1015.77 1015.52 1015.65 1015.67 1015.43 1016.34 1016.93 1017.08 1017.68 1018.32 1019.20 1019.61 1019.86 1019.03 1018.62 1018.28 1017.57 1017.20
1019.56 1020.06 1020.42 1020.05 1020.32 1020.36 1020.35 1020.41 1020.67 1019.84 1019.19 1018.65 1018.14 1017.88 1017.62 1017.55 1017.33 1017.54 1017.76 1017.55 1017.64 1017.55 1016.93 1016.39 1016.26 1016.16 1016.59 1016.01 1015.08 1015.73 1015.58 1015.89 1016.69 1016.95 1017.58 1017.53 1018.14 1019.72 1019.95 1019.78 1019.39 1018.97 1018.46 1017.91 1017.72
1019.47 1020.09 1020.28 1020.21 1020.49 1020.55 1020.55 1020.66 1020.52 1019.32 1018.66 1018.31 1018.15 1018.17 1018.07 1018.03 1017.83 1017.61 1018.12 1018.08 1018.00 1017.94 1017.53 1017.05 1016.65 1016.68 1016.79 1016.51 1016.46 1016.40 1016.79 1017.25 1017.60 1017.90 1017.79 1017.57 1018.67 1019.26 1019.21 1019.32 1019.13 1019.20 1019.03 1019.05 1018.97
1019.56 1020.03 1020.28 1020.51 1020.67 1020.77 1020.83 1020.77 1019.36 1018.73 1018.05 1018.10 1018.48 1018.32 1018.64 1018.62 1018.44 1018.03 1018.12 1018.66 1018.49 1018.37 1018.72 1017.66 1017.17 1017.11 1017.16 1017.17 1016.98 1016.58 1017.12 1017.80 1018.04 1018.30 1018.30 1018.16 1018.66 1018.50 1018.56 1018.61 1018.78 1019.08 1019.26 1019.26 1018.95
1019.24 1019.92 1020.26 1020.50 1020.70 1020.88 1021.17 1020.54 1019.55 1018.65 1018.17 1017.91 1017.92 1018.03 1018.46 1018.78 1018.58 1018.22 1018.33 1018.70 1019.08 1019.03 1019.02 1018.53 1018.22 1017.58 1017.34 1017.26 1017.30 1017.22 1017.53 1017.93 1018.23 1018.48 1018.52 1018.42 1018.17 1018.31 1018.55 1018.65 1018.78 1019.26 1019.54 1019.45 1019.47
1018.98 1019.91 1020.65 1020.68 1020.87 1021.22 1021.44 1020.71 1019.77 1018.98 1018.57 1018.44 1018.02 1018.02 1017.89 1018.37 1018.75 1018.28 1018.35 1018.92 1019.34 1019.39 1019.31 1019.08 1019.01 1018.39 1017.94 1017.94 1017.86 1017.77 1017.67 1017.86 1018.19 1018.39 1018.64 1018.39 1018.44 1017.86 1018.53 1018.95 1019.27 1019.43 1019.70 1019.70 1019.97
1018.45 1020.22 1020.68 1020.79 1021.42 1021.64 1021.40 1020.67 1020.29 1019.35 1019.13 1018.70 1018.39 1017.97 1017.72 1018.03 1018.45 1018.75 1018.77 1018.22 1019.16 1019.74 1019.69 1019.64 1019.83 1019.72 1018.85 1018.45 1018.52 1018.25 1018.40 1018.60 1018.71 1018.51 1018.17 1018.37 1018.58 1018.07 1018.40 1018.90 1019.36 1019.75 1019.94 1020.17 1020.31
1018.25 1020.02 1020.79 1020.84 1021.22 1021.29 1021.28 1021.11 1020.56 1019.75 1019.37 1019.00 1018.62 1018.30 1017.93 1018.18 1018.63 1018.62 1018.73 1019.45 1019.60 1020.10 1020.22 1020.09 1020.64 1020.83 1019.97 1019.43 1019.00 1018.56 1018.57 1018.98 1019.05 1018.88 1018.47 1018.50 1018.48 1018.25 1018.44 1018.89 1019.39 1019.76 1019.97 1020.16 1020.21
1017.72 1019.76 1020.81 1020.86 1020.38 1020.27 1020.50 1020.75 1020.57 1019.94 1019.42 1018.96 1018.61 1018.56 1018.62 1018.46 1018.55 1018.90 1019.12 1019.51 1020.43 1020.49 1020.78 1020.85 1021.23 1021.71 1021.40 1020.54 1020.38 1019.74 1019.41 1019.40 1019.60 1019.39 1018.38 1017.85 1018.25 1018.50 1018.54 1018.81 1019.28 1019.75 1019.98 1020.18 1020.28
1016.40 1017.67 1017.86 1019.50 1019.72 1019.70 1019.45 1019.38 1019.86 1020.02 1019.80 1019.26 1019.02 1018.66 1018.45 1018.76 1018.74 1019.10 1019.23 1019.97 1020.83 1021.27 1021.27 1021.26 1021.91 1022.51 1022.45 1021.87 1021.12 1020.77 1020.23 1019.94 1019.88 1019.23 1018.89 1018.06 1017.76 1017.85 1018.11 1018.42 1018.92 1019.38 1019.78 1020.03 1020.15
1015.31 1016.26 1017.27 1017.74 1017.82 1019.15 1019.09 1018.38 1018.51 1018.87 1018.97 1019.13 1018.77 1018.64 1018.52 1018.38 1018.29 1019.09 1019.12 1019.89 1020.42 1021.65 1021.75 1021.96 1022.71 1023.32 1023.50 1022.40 1021.90 1021.40 1020.50 1019.99 1019.46 1018.86 1018.38 1017.86 1017.20 1016.68 1017.51 1018.12 1018.75 1019.23 1019.72 1019.94 1020.25
1013.60 1014.15 1014.57 1016.43 1017.31 1018.10 1017.32 1016.81 1017.00 1017.48 1018.20 1017.67 1017.76 1018.22 1018.64 1018.22 1018.72 1019.50 1019.50 1019.78 1020.54 1021.39 1021.96 1022.43 1023.23 1024.18 1024.48 1023.78 1022.76 1021.47 1019.19 1018.79 1018.43 1017.91 1017.65 1017.30 1016.63 1016.60 1017.42 1017.92 1018.42 1018.96 1019.35 1019.90 1020.36
Wind_Speed
7 8 9 10 11 11 12 12 13 14 14 15 16 16 16 18 20 1 9 7 10 14 20 11 9 9 5 0 3 3 3 4 7 7 10 18 14 15 11 7 3 10 12 6 9
7 9 10 10 11 11 12 13 14 14 14 14 15 15 15 16 7 11 4 10 12 13 11 11 12 10 0 1 2 3 3 2 7 9 10 13 15 16 16 15 12 9 10 9 11
7 9 10 11 12 12 13 13 14 14 14 15 15 14 14 13 4 5 6 10 11 12 9 8 7 5 4 1 3 5 3 11 8 10 10 12 14 13 15 14 13 15 14 5 8
6 8 9 10 11 12 13 14 14 14 14 15 14 12 13 5 2 4 6 8 10 10 8 9 9 5 3 5 5 5 5 10 10 10 11 12 14 15 15 16 17 21 22 8 7
6 7 8 10 11 12 14 15 15 15 15 15 12 10 7 3 5 4 5 4 8 8 10 10 10 8 7 6 9 7 8 12 14 14 13 13 14 14 17 16 16 19 22 15 9
5 6 8 9 11 13 14 15 15 15 15 11 9 10 5 1 1 3 5 5 7 8 6 9 7 6 5 6 4 10 12 15 10 11 11 12 9 9 14 17 17 17 16 18 17
6 7 8 9 11 13 14 16 16 15 12 8 6 6 4 5 0 4 1 4 4 7 7 6 6 6 8 7 11 10 7 13 9 11 9 7 6 4 14 17 11 11 15 16 13
6 6 8 10 11 13 15 16 16 12 7 5 4 6 2 2 6 2 3 1 1 2 2 4 4 2 2 6 5 4 4 8 13 11 8 11 7 8 15 13 12 15 13 14 15
7 6 7 9 11 13 16 16 12 6 5 4 5 3 4 2 2 2 2 4 4 1 1 1 2 3 3 3 1 2 6 13 14 9 8 6 12 12 17 11 12 13 15 15 13
7 6 7 9 11 14 16 12 3 4 5 4 4 3 4 1 2 3 1 2 3 1 3 4 4 3 2 5 4 9 6 8 13 10 6 7 10 7 12 13 14 13 11 14 11
7 6 6 8 11 14 9 3 3 3 5 3 3 3 2 5 3 5 2 4 3 5 3 4 2 2 6 5 3 8 7 9 12 7 4 11 7 9 11 12 13 12 13 12 9
7 5 5 8 11 13 6 2 3 2 2 1 2 2 1 2 3 3 1 4 3 7 0 3 3 6 3 5 6 3 7 6 10 11 2 6 6 8 12 13 14 13 12 11 12
8 5 4 7 11 6 4 4 2 3 4 4 0 1 3 2 3 4 4 3 6 8 4 4 4 3 5 7 4 5 3 4 6 5 1 6 1 5 5 8 14 15 14 11 13
8 5 3 7 4 1 2 1 3 4 2 5 3 3 2 1 1 2 2 1 2 5 6 6 3 2 6 8 6 6 1 6 5 2 2 3 2 3 6 8 10 12 15 15 15
10 6 2 2 3 1 3 0 2 3 2 1 4 2 1 2 1 2 1 2 4 5 3 1 3 5 5 3 5 8 9 11 1 3 3 2 3 3 8 8 15 10 12 10 11
11 8 3 3 2 3 0 1 2 4 5 2 2 3 4 3 4 1 3 3 1 4 6 11 2 2 4 10 8 10 11 6 4 3 2 6 1 3 10 10 12 13 12 9 11
12 9 4 1 1 3 2 2 3 3 2 3 3 4 2 2 4 0 1 2 3 3 2 4 8 3 2 8 4 8 9 2 2 2 1 6 5 2 8 9 8 12 14 14 12
13 9 1 3 2 1 2 3 2 1 4 0 3 3 3 1 3 1 2 2 3 4 3 3 2 1 4 2 3 4 4 2 2 3 3 7 5 5 2 5 6 8 9 10 8
15 3 3 3 0 1 0 2 5 5 5 7 2 3 3 2 1 2 1 5 4 5 4 4 2 4 1 2 3 5 4 4 4 2 1 2 3 3 5 7 9 10 9 8 8
5 4 3 4 1 2 3 4 2 2 2 4 4 6 4 3 4 4 3 3 1 1 3 2 4 3 2 4 4 1 3 1 2 3 2 1 3 3 4 5 8 8 8 8 8
4 3 3 3 1 3 3 5 3 3 2 3 3 4 3 5 3 2 4 5 0 3 3 3 2 1 4 4 3 2 1 3 1 1 2 0 2 4 7 5 6 6 7 7 6
4 3 3 2 3 2 4 6 3 5 3 2 2 2 3 5 5 4 1 5 4 2 2 4 2 3 3 5 1 1 2 4 1 1 1 2 2 6 8 7 7 6 4 4 5
6 3 1 2 5 4 2 2 2 5 4 5 4 5 3 5 2 4 5 3 4 3 2 3 1 3 2 2 4 2 3 3 5 1 4 0 2 6 7 7 6 5 5 4 5
5 6 2 2 2 3 6 4 4 4 2 4 3 3 3 3 2 3 2 4 2 2 1 1 1 3 2 2 2 3 1 2 4 2 2 4 6 7 8 8 7 6 5 5 5
3 5 5 8 9 6 9 9 6 6 3 2 4 7 7 5 6 5 5 6 4 4 3 2 2 2 7 8 3 5 7 7 6 7 3 4 6 12 10 9 8 6 6 5 6
7 7 2 5 7 15 10 10 12 6 9 6 5 11 8 5 6 7 6 6 5 6 5 3 2 2 5 6 5 7 8 9 10 9 8 7 9 10 9 9 8 8 6 5 6
3 3 6 9 9 11 9 7 14 11 8 6 11 6 9 7 8 6 6 5 3 7 6 5 4 3 5 4 4 8 10 14 7 7 8 7 6 9 8 11 10 9 8 7 6
Wind_Direction
359 357 354 356 356 354 352 352 351 350 347 346 345 344 344 340 312 41 44 352 334 328 310 339 2 339 251 141 304 312 285 290 307 325 351 355 359 338 330 306 357 309 304 100 78
351 350 349 348 349 349 347 346 346 345 343 342 340 340 339 337 295 60 15 349 343 333 340 352 349 335 206 72 211 275 264 265 16 354 359 336 343 332 334 324 319 302 275 67 79
346 344 343 344 343 344 343 343 342 339 338 337 335 335 333 324 261 52 4 344 335 321 321 322 298 295 311 237 47 344 252 341 335 345 333 317 311 315 307 301 300 295 299 2 128
332 335 338 340 339 338 338 336 335 333 332 330 328 327 324 292 47 45 342 330 314 295 348 357 356 4 320 360 37 311 296 331 324 334 324 303 300 286 274 276 287 293 297 299 319
316 323 329 334 333 333 332 331 330 329 328 324 320 321 308 218 65 105 297 331 293 338 16 358 27 351 10 352 339 254 324 333 318 309 297 288 285 287 290 286 272 278 285 292 272
297 310 317 323 327 328 327 325 323 323 322 319 315 312 261 188 97 353 357 305 5 350 10 23 14 342 295 314 326 348 318 299 291 279 268 267 289 298 280 279 276 284 274 278 280
281 304 309 316 322 324 323 321 319 318 314 312 308 293 264 78 294 3 325 351 350 360 350 35 6 353 344 324 358 298 300 290 213 350 322 32 275 252 0 337 310 258 267 283 264
260 295 310 312 319 322 320 316 314 306 293 287 279 289 39 100 342 267 333 146 271 23 356 12 357 321 287 284 258 268 244 355 346 354 340 345 297 18 346 330 329 334 356 5 353
244 275 300 312 317 318 318 316 308 277 256 241 247 266 108 151 234 21 316 337 347 131 94 32 302 280 219 333 357 78 316 334 328 356 331 358 316 331 323 346 350 356 353 343 338
219 259 292 308 314 319 320 308 269 264 213 234 262 230 164 73 3 329 231 293 287 277 207 224 216 267 211 23 350 317 327 310 323 326 343 305 292 321 330 12 359 353 358 328 329
209 246 286 306 315 321 324 220 209 193 233 341 28 318 88 349 141 185 33 282 233 229 287 158 299 67 17 354 321 301 280 308 315 318 322 0 16 28 6 2 0 351 344 333 339
201 234 283 309 317 314 287 326 46 351 266 199 277 251 50 353 251 147 237 289 225 278 323 193 246 66 311 276 309 302 306 308 298 333 108 343 19 353 9 351 356 4 341 343 360
192 218 283 312 320 301 46 50 355 318 259 136 196 310 77 314 358 85 5 49 280 296 273 282 360 19 320 300 326 315 197 256 242 309 95 330 93 6 339 346 359 1 347 5 10
180 189 267 317 298 48 71 60 311 309 8 140 184 113 187 233 161 34 54 36 223 308 333 274 76 315 318 293 18 310 128 321 319 313 324 27 297 24 356 341 355 353 1 1 3
171 175 208 334 317 224 73 347 291 254 318 68 125 92 130 280 5 135 49 190 284 321 320 303 360 343 297 41 351 260 329 296 92 285 235 356 286 11 4 344 331 336 349 350 13
167 167 173 229 249 76 167 203 248 46 250 117 120 163 205 178 147 147 222 195 309 286 232 263 81 272 321 307 261 278 281 239 219 219 141 283 96 28 7 338 325 331 341 350 10
161 164 177 335 23 143 172 225 41 179 1 200 184 198 241 130 158 298 269 172 314 344 225 228 204 133 258 302 122 356 320 342 266 342 360 344 52 60 355 340 335 357 2 357 20
150 146 143 36 98 149 241 57 163 177 207 158 155 162 243 129 122 135 242 227 155 325 298 314 288 349 14 51 333 309 328 87 305 341 317 44 13 342 60 131 98 75 29 20 1
139 155 161 132 260 273 165 126 220 198 164 159 134 195 5 184 279 176 150 354 37 35 305 344 92 137 67 351 350 350 56 355 300 33 342 107 106 165 41 52 56 49 41 27 23
148 168 132 134 180 235 84 254 235 297 90 181 184 171 169 231 198 157 133 53 69 27 331 53 296 72 121 203 215 211 332 282 285 349 332 138 102 111 86 41 58 46 50 35 25
131 160 93 146 192 72 197 230 248 218 235 174 198 150 217 148 195 171 126 150 200 152 262 331 115 251 214 36 31 316 63 309 243 142 290 224 146 97 106 82 87 77 57 52 25
123 144 145 201 127 187 195 192 302 170 185 239 300 241 198 162 178 198 228 99 130 289 255 62 38 277 31 119 150 315 344 281 270 243 162 265 200 124 124 124 120 103 85 95 109
122 109 84 267 187 205 174 245 264 171 191 191 212 211 201 176 174 193 144 67 105 246 329 141 72 315 296 155 194 231 123 285 277 267 238 214 203 136 134 134 126 122 107 82 63
121 134 134 219 286 210 146 199 218 242 275 181 186 143 154 199 204 144 147 136 150 243 97 341 84 245 260 34 18 302 289 242 280 293 275 234 151 177 178 158 148 153 137 96 83
139 182 179 174 219 205 173 165 154 173 217 266 207 214 175 188 183 196 179 117 190 171 212 233 190 225 286 293 280 264 273 278 253 259 239 327 186 191 187 168 165 160 130 113 85
143 151 170 151 142 174 189 204 176 164 152 213 180 200 208 177 175 196 162 156 175 166 202 167 145 96 285 265 248 264 250 254 251 245 260 269 281 167 163 146 146 153 158 129 114
171 148 129 163 146 164 210 189 190 145 207 183 179 171 205 201 79 70 55 67 118 161 198 149 138 108 264 332 324 307 226 218 205 199 198 205 219 148 159 161 165 162 160 146 124